WetterOnline ( http://www.wetteronline.de )

Wetter aktuell Bitburg

Aktuelles Wetter: Trier/Petrisberg (273m)

6-stündlich | Neueste Meldungen
Ortszeit Temperatur Wetter
Di, 21.08. 20:00 27.4° C leicht bewölkt
Di, 21.08. 14:00 28.2° C wolkig
Di, 21.08. 8:00 16.8° C bewölkt
Di, 21.08. 2:00 17.6° C wolkenlos
Mo, 20.08. 20:00 23.6° C wolkig
Mo, 20.08. 14:00 25.7° C bewölkt
Mo, 20.08. 8:00 16.6° C bedeckt
Mo, 20.08. 2:00 17.4° C bedeckt
Ortszeit Temperatur Wetter
Di, 21.08. 22:00 23.1° C bewölkt
Di, 21.08. 21:50 23.1° C bewölkt
Di, 21.08. 21:40 23.5° C wolkig
Di, 21.08. 21:30 23.6° C bedeckt
Di, 21.08. 21:20 23.6° C bedeckt
Di, 21.08. 21:10 23.9° C bedeckt
Di, 21.08. 21:00 24.3° C leicht bewölkt
Di, 21.08. 20:30 25.6° C wolkig
Di, 21.08. 20:00 27.4° C leicht bewölkt
Di, 21.08. 19:30 27.8° C leicht bewölkt
Di, 21.08. 19:00 28.1° C leicht bewölkt
Ortszeit Relative Feuchte Sichtweite
Di, 21.08. 20:00 38% 70 km
Di, 21.08. 14:00 40% 70 km
Di, 21.08. 8:00 90% 45 km
Di, 21.08. 2:00 85% 70 km
Mo, 20.08. 20:00 57% 70 km
Mo, 20.08. 14:00 47% 70 km
Mo, 20.08. 8:00 82% 50 km
Mo, 20.08. 2:00 75% 65 km
Ortszeit Relative Feuchte Sichtweite
Di, 21.08. 22:00 55% 70 km
Di, 21.08. 21:50 55% -
Di, 21.08. 21:40 52% -
Di, 21.08. 21:30 51% 70 km
Di, 21.08. 21:20 51% -
Di, 21.08. 21:10 50% -
Di, 21.08. 21:00 48% 70 km
Di, 21.08. 20:30 44% 70 km
Di, 21.08. 20:00 38% 70 km
Di, 21.08. 19:30 36% 70 km
Di, 21.08. 19:00 36% 70 km
Ortszeit Niederschlagsmenge Niederschlagsart
Di, 21.08. 20:00 0.0 l/m2 in 12 Std. -
Di, 21.08. 14:00 0.0 l/m2 in 6 Std. -
Di, 21.08. 8:00 0.0 l/m2 in 12 Std. -
Di, 21.08. 2:00 0.0 l/m2 in 6 Std. -
Mo, 20.08. 20:00 0.0 l/m2 in 12 Std. -
Mo, 20.08. 14:00 0.0 l/m2 in 6 Std. -
Mo, 20.08. 8:00 0.0 l/m2 in 12 Std. -
Mo, 20.08. 2:00 0.0 l/m2 in 6 Std. -
Ortszeit Niederschlagsmenge Niederschlagsart
Di, 21.08. 22:00 0.0 l/m2 in 1 Std. -
Di, 21.08. 21:50 keine Meldung -
Di, 21.08. 21:40 keine Meldung -
Di, 21.08. 21:30 0.0 l/m2 in 1 Std. -
Di, 21.08. 21:20 keine Meldung -
Di, 21.08. 21:10 keine Meldung -
Di, 21.08. 21:00 0.0 l/m2 in 1 Std. -
Di, 21.08. 20:30 0.0 l/m2 in 1 Std. -
Di, 21.08. 20:00 0.0 l/m2 in 1 Std. -
Di, 21.08. 19:30 0.0 l/m2 in 1 Std. -
Di, 21.08. 19:00 0.0 l/m2 in 1 Std. -
Ortszeit Stärke Spitze Richtung
km/h Bft. km/h Grad Sektor
Di, 21.08. 20:00 6 1 20 290° W
Di, 21.08. 14:00 6 1 19 170° S
Di, 21.08. 8:00 6 1 11 20° N
Di, 21.08. 2:00 6 1 15 30° NO
Mo, 20.08. 20:00 6 1 22 290° W
Mo, 20.08. 14:00 9 2 19 220° SW
Mo, 20.08. 8:00 4 1 11 280° W
Mo, 20.08. 2:00 7 2 22 190° S
Ortszeit Stärke Spitze Richtung
km/h Bft. km/h Grad Sektor
Di, 21.08. 22:00 11 2 18 10° N
Di, 21.08. 21:50 11 2 - 10° N
Di, 21.08. 21:40 13 3 - 20° N
Di, 21.08. 21:30 11 2 18 20° N
Di, 21.08. 21:20 11 2 - 20° N
Di, 21.08. 21:10 11 2 - 10° N
Di, 21.08. 21:00 6 1 9 330° NW
Di, 21.08. 20:30 6 1 7 360° N
Di, 21.08. 20:00 6 1 13 290° W
Di, 21.08. 19:30 6 1 13 310° NW
Di, 21.08. 19:00 7 2 18 280° W
Ortszeit Untergrenze Bedeckung Gattung
total tief tief mittel hoch
Di, 21.08. 20:00 2400 m 2/8 1/8 - - -
Di, 21.08. 14:00 1410 m 7/8 7/8 - - -
Di, 21.08. 8:00 1140 m 7/8 7/8 - - -
Di, 21.08. 2:00 - 0/8 0/8 - - -
Mo, 20.08. 20:00 1800 m 6/8 6/8 - - -
Mo, 20.08. 14:00 1320 m 7/8 7/8 - - -
Mo, 20.08. 8:00 570 m 8/8 8/8 - - -
Mo, 20.08. 2:00 - 8/8 - - - -
Ortszeit Bedeckungsgrad in Achtel und Wolkenuntergrenze
Di, 21.08. 22:00 6(1800m) 6(2400m) 7(3000m)
Di, 21.08. 21:50 6(1800m) 6(2400m) 7(3000m)
Di, 21.08. 21:40 3(1800m) 4(2400m) 6(3000m)
Di, 21.08. 21:30 9 9 9
Di, 21.08. 21:20 9 9 9
Di, 21.08. 21:10 9 9 9
Di, 21.08. 21:00 5(12000m)
Di, 21.08. 20:30 7(12000m)
Di, 21.08. 20:00 1(2400m) 2(3600m) 4(12000m)
Di, 21.08. 19:30 2(3600m)
Di, 21.08. 19:00 1(2100m) 3(3600m) 7(12000m)
Ortszeit Luftdruck NN (hPa) Tendenz (hPa in 3 Std.)
Di, 21.08. 20:00 1017 - 0,8
Di, 21.08. 14:00 1019 keine Meldung
Di, 21.08. 8:00 1021 + 0,5
Di, 21.08. 2:00 1021 + 0,6
Mo, 20.08. 20:00 1019 - 0,6
Mo, 20.08. 14:00 1020 - 0,6
Mo, 20.08. 8:00 1021 + 0,9
Mo, 20.08. 2:00 1020 + 0,3
Ortszeit Luftdruck NN (hPa) Tendenz (hPa in 3 Std.)
Di, 21.08. 22:00 1018 + 0,7
Di, 21.08. 21:50 1018 keine Meldung
Di, 21.08. 21:40 1018 keine Meldung
Di, 21.08. 21:30 1017 + 0,3
Di, 21.08. 21:20 1017 keine Meldung
Di, 21.08. 21:10 1017 keine Meldung
Di, 21.08. 21:00 1017 - 0,1
Di, 21.08. 20:30 1017 - 0,4
Di, 21.08. 20:00 1017 - 0,8
Di, 21.08. 19:30 1017 - 0,9
Di, 21.08. 19:00 1017 - 1,1
Ortszeit Schneehöhe (cm)
Di, 21.08. 20:00 -
Di, 21.08. 14:00 -
Di, 21.08. 8:00 -
Di, 21.08. 2:00 -
Mo, 20.08. 20:00 -
Mo, 20.08. 14:00 -
Mo, 20.08. 8:00 -
Mo, 20.08. 2:00 -
Ortszeit Schneehöhe (cm)
Di, 21.08. 22:00 -
Di, 21.08. 21:50 -
Di, 21.08. 21:40 -
Di, 21.08. 21:30 -
Di, 21.08. 21:20 -
Di, 21.08. 21:10 -
Di, 21.08. 21:00 -
Di, 21.08. 20:30 -
Di, 21.08. 20:00 -
Di, 21.08. 19:30 -
Di, 21.08. 19:00 -
Link zu dieser Seite / Seite empfehlen

Das Wetter in ...